Location: Unspecified
(0.0000°N, 0.0000°E)
Time: 00:19:51
(UTC+00:00)

Kitsat-3 - Visible Passes

Search period start: 07 June 2023 00:00
Search period end: 17 June 2023 00:00
Orbit: 701 x 722 km, 98.6° (Epoch: 06 June)

Date Brightness Start Highest point End Pass type
(mag) Time Alt. Az. Time Alt. Az. Time Alt. Az.
07 Jun 10.2 03:14:58 10° ENE 03:17:40 15° ESE 03:18:13 15° ESE visible
07 Jun 8.6 04:51:07 10° NNW 04:55:15 29° WNW 04:57:18 21° WSW visible
08 Jun 8.1 03:58:20 10° NNE 04:03:04 57° ESE 04:04:20 43° SSE visible
09 Jun 10.4 03:09:10 10° E 03:10:55 12° ESE 03:11:22 12° ESE visible
09 Jun 8.3 04:44:07 10° NNW 04:48:29 35° WNW 04:50:27 25° WSW visible
10 Jun 8.5 03:51:42 10° NNE 03:56:18 46° ESE 03:57:29 38° SE visible
11 Jun 8.0 04:37:09 10° N 04:41:43 44° WNW 04:43:35 30° SW visible
12 Jun 8.9 03:45:06 10° NE 03:49:32 37° ESE 03:50:37 33° SE visible
12 Jun 9.6 05:25:38 10° WNW 05:27:08 11° WNW 05:28:38 10° W visible
13 Jun 7.7 04:30:15 10° N 04:34:57 55° WNW 04:36:43 35° SW visible
14 Jun 9.2 03:38:35 10° NE 03:42:47 30° ESE 03:43:45 28° SE visible
14 Jun 9.4 05:17:49 10° NW 05:20:23 14° WNW 05:22:49 10° WSW visible
15 Jun 7.6 04:23:23 10° N 04:28:11 69° WNW 04:29:51 40° SSW visible
16 Jun 9.5 03:32:07 10° NE 03:36:01 24° ESE 03:36:52 23° ESE visible
16 Jun 9.2 05:10:24 10° NW 05:13:36 18° WNW 05:15:56 13° WSW visible
